Other Public Products
Issued by NWS Charleston, SC

Home | Current Version | Previous Version | Text Only | Print | Product List | Glossary On
Versions: 1 2 3 4 5 6 7 8 9 10 11 12 13 14 15 16 17 18 19 20 21 22 23 24 25 26 27 28 29 30 31 32 33 34 35 36 37 38 39 40 41 42 43 44 45 46 47 48 49 50
000
FPUS82 KCHS 111926
OPUCHS

TEST...KCHS/KSAV Gateway Observations...TEST
National Weather Service Charleston SC
200 PM EST MON DEC 11 2017

NOTE: "fair" indicates few or no clouds below 12,000 feet with no
significant weather and/or obstructions to visibility.

SCZ050-WAZ558-NCZ071-TXZ119-213-PAZ071-DCZ001-FLZ074-172-MI076-
NYZ176-178-MAZ016-IL014-TNZ027-NJZ106-GAZ044-MD014-112000-

...Gateway Observations for Charleston International...

CITY           SKY/WX    TMP DP  RH WIND       PRES   REMARKS
Chas Airport   SUNNY     56  31  38 VRB5      30.09F
Seattle        FOG       36  36 100 W6        30.34S VSB 1/4 WCI  31
Charlotte      SUNNY     54  28  36 S10       30.05F
Dallas DFW     PTSUNNY   77  15   9 W16       30.13F
Dallas Love    PTSUNNY   74  21  13 W9        30.15F
Philladelphia  PTSUNNY   42  22  44 W14       30.02F
Wash National  PTSUNNY   48  25  40 SE6       30.00F
Baltimore      PTSUNNY   45  24  43 W6        30.00F
Miami          MOSUNNY   67  30  25 VRB5      30.17F
Detroit        CLOUDY    29  25  85 S9        29.88F WCI  20
Newark         PTSUNNY   42  21  43 W13       29.99S
Laguardia      MOSUNNY   42  21  43 W7G16     29.98F
J F K          PTSUNNY   41  24  51 W8        30.00S
Boston Logan   MOSUNNY   38  21  50 W10       29.95S WCI  31
Ft. Lauderdale SUNNY     65  27  23 CALM      30.16F
Chicago O`Hare CLOUDY    37  25  61 S8        29.70F WCI  31
Chicago Midway CLOUDY    38  26  62 SE7       29.71F WCI  33
Houston Bush   MOSUNNY   72  32  23 W5        30.23F
Houston Hobby  MOSUNNY   71  36  27 SW6       30.24F
Nashville      SUNNY     59  29  31 S12       29.99F
Atlanta        SUNNY     59  35  40 SW7       30.08F

$$

GAZ044-118-TXZ119-213-NCZ071-DCZ001-MDZ014-506-PAZ021-071-NJZ106-
NYZ176-178-MAZ106-OHZ011-021-055-MIZ076-KYZ091-ILZ014-INZ047-
MNZ060-ONZ431-112000-

...Gateway Observations for Savannah International...

CITY           SKY/WX    TMP DP  RH WIND       PRES   REMARKS
Savannah Arpt  SUNNY     60  32  34 W9        30.12F
Atlanta        SUNNY     59  35  40 SW7       30.08F
Charlotte      SUNNY     54  28  36 S10       30.05F
Dallas DFW     PTSUNNY   77  15   9 W16       30.13F
Houston Bush   MOSUNNY   72  32  23 W5        30.23F
Wash National  PTSUNNY   48  25  40 SE6       30.00F
Wash Dulles    PTSUNNY   47  24  40 VRB5      29.98F
Baltimore      PTSUNNY   45  24  43 W6        30.00F
Philadelphia   PTSUNNY   42  22  44 W14       30.02F
Newark         PTSUNNY   42  21  43 W13       29.99S
Laguardia      MOSUNNY   42  21  43 W7G16     29.98F
J F K          PTSUNNY   41  24  51 W8        30.00S
Boston         MOSUNNY   38  21  50 W10       29.95S WCI  31
Pittsburg      CLOUDY    37  20  50 SW10      29.91F WCI  30
Akron          LGT SNOW  31  19  61 S10       29.91F WCI  22
Cleveland      LGT SNOW  30  22  72 S3        29.95F
Cincinnati     PTSUNNY   44  29  55 SW12      29.85F
Columbus       CLOUDY    37  25  61 S7        29.89F WCI  32
Detroit        CLOUDY    29  25  85 S9        29.88F WCI  20
Chicago O`Hare CLOUDY    37  25  61 S8        29.70F WCI  31
Minneapolis    CLOUDY    35  30  82 N22G31    29.83R WCI  23
Indianapolis   PTSUNNY   44  27  51 S16       29.77F
Toronto Canada FLURRIES  25  16  68 SE8       29.93F WCI  16

$$




USA.gov is the U.S. government's official web portal to all federal, state and local government web resources and services.